This is the latest recevied weather packets stored in our database for station/object SP6PWT-13. If no packets are shown the sender has not sent any weather packets the latest 10 day(s).
| Time | Temp. | Humidity | Pressure | Rain* | Wind** | Luminosity | Snow |
|---|---|---|---|---|---|---|---|
| 1777788394 | 15.56° C | 53% | 1000.9 hPa | 0 mm | - | 253 W/m² | - |
| 1777788083 | 15.56° C | 53% | 1000.9 hPa | 0 mm | - | 236 W/m² | - |
| 1777787782 | 15.56° C | 54% | 1000.9 hPa | 0 mm | - | 59 W/m² | - |
| 1777787481 | 15° C | 54% | 1000.8 hPa | 0 mm | - | 214 W/m² | - |
| 1777787181 | 14.44° C | 57% | 1000.9 hPa | 0 mm | - | 202 W/m² | - |
| 1777786871 | 13.89° C | 58% | 1000.9 hPa | 0 mm | - | 173 W/m² | - |
| 1777786570 | 13.89° C | 58% | 1001 hPa | 0 mm | - | 46 W/m² | - |
| 1777786270 | 13.33° C | 59% | 1000.8 hPa | 0 mm | - | 43 W/m² | - |
| 1777785969 | 13.33° C | 59% | 1001 hPa | 0 mm | - | 42 W/m² | - |
| 1777785658 | 12.78° C | 60% | 1000.8 hPa | 0 mm | - | 43 W/m² | - |
| 1777785357 | 12.78° C | 60% | 1000.9 hPa | 0 mm | - | 41 W/m² | - |
| 1777785057 | 12.22° C | 61% | 1000.9 hPa | 0 mm | - | 40 W/m² | - |
| 1777784746 | 12.22° C | 62% | 1000.9 hPa | 0 mm | - | 38 W/m² | - |
| 1777784445 | 12.22° C | 62% | 1000.9 hPa | 0 mm | - | 38 W/m² | - |
| 1777784144 | 11.67° C | 62% | 1000.8 hPa | 0 mm | - | 72 W/m² | - |
| 1777783844 | 11.67° C | 62% | 1000.7 hPa | 0 mm | - | 70 W/m² | - |
| 1777783543 | 11.67° C | 63% | 1000.7 hPa | 0 mm | - | 66 W/m² | - |
| 1777783232 | 11.67° C | 63% | 1000.9 hPa | 0 mm | - | 60 W/m² | - |
| 1777782932 | 11.11° C | 63% | 1000.8 hPa | 0 mm | - | 55 W/m² | - |
| 1777782621 | 11.11° C | 63% | 1000.8 hPa | 0 mm | - | 50 W/m² | - |
| 1777782321 | 11.11° C | 63% | 1000.9 hPa | 0 mm | - | 45 W/m² | - |
| 1777782020 | 11.11° C | 64% | 1000.8 hPa | 0 mm | - | 41 W/m² | - |
| 1777781720 | 11.11° C | 64% | 1000.8 hPa | 0 mm | - | 37 W/m² | - |
| 1777781419 | 10.56° C | 64% | 1000.9 hPa | 0 mm | - | 32 W/m² | - |
| 1777781119 | 10.56° C | 64% | 1000.8 hPa | 0 mm | - | 27 W/m² | - |
* Rain latest hour (hover to see other rain measurements)
** Current wind speed in m/s (hover to see current wind gust speed)